www.pogodaiklimat.ru

Погода и климат >> Архив погоды >> Мексика >> Hermosillo


ПОГОДА в Hermosillo

  • Прогноз погоды в Hermosillo
  • Монитор погоды в Hermosillo
  • Климат города

АРХИВ ПОГОДЫ в Hermosillo

Время (UTC), дата Ветер
(напр.,м/с)
 
Видим.   Явления Облачность Т
(С)
Тd
(С)
f
(%)
Тe
(С)
Тes
(С)
Комфортность P
(гПа)
Po
(гПа)
Тmin
(С)
Tmax
(С)
R
(мм)
R24
(мм)
S
(см)
15 21.05 СВ 2 12 км ясно +24.0 +10.8 43 +25 +31 комфорт 1009.5 985.3
18 21.05 Ю 2 12 км ясно +34.6 +7.5 19 +33 +52 опасность
солнечного
удара
1008.3 984.8 +15.5 +34.0
21 21.05 ЮЗ 3 12 км ясно +36.2 +10.5 21 +35 +51 опасность
солнечного
удара
1006.3 982.9
00 22.05 З 5 12 км ясно +34.0 +13.0 28 +34 +37 очень
жарко
1005.7 982.1 +15.5 +38.0
03 22.05 З 3 8000 м ясно +28.4 +5.9 24 +27 +27 жарко 1007.7 984.2
06 22.05 ЮЗ 1 8000 м ясно +24.8 +11.0 42 +26 +26 жарко 1008.6 985.0 +15.5 +38.0
15 22.05 СВ 1 12 км ясно +23.6 +10.2 43 +25 +31 комфорт 1011.2 986.9
18 22.05 ЮВ 2 12 км ясно +32.0 +13.5 33 +33 +53 опасность
солнечного
удара
1010.0 986.3 +16.0 +32.0
21 22.05 ЮЗ 4 12 км ясно +34.4 +13.2 28 +35 +48 очень
жарко
1007.8 984.4
00 23.05 ЮЗ 4 12 км ясно +33.0 +14.5 33 +35 +38 душно 1007.0 983.4 +16.0 +36.5
03 23.05 З 3 8000 м ясно +28.4 +8.0 28 +28 +28 жарко 1008.8 985.2
06 23.05 СЗ 1 8000 м ясно +24.6 +8.0 35 +25 +25 комфорт 1010.2 986.5 +16.0 +36.5
15 23.05 В 1 12 км ясно +23.8 +8.7 38 +24 +31 комфорт 1011.9 987.6
18 23.05 ЮЗ 3 12 км ясно +31.8 +11.5 29 +32 +48 жарко 1011.3 987.5 +16.5 +31.8
21 23.05 З 2 12 км ясно +36.6 +11.7 22 +36 +55 опасность
солнечного
удара
1009.4 986.0
00 24.05 ЮЗ 4 12 км ясно +35.4 +11.6 24 +35 +38 очень
жарко
1009.2 985.7 +16.5 +38.0
03 24.05 З 3 8000 м ясно +29.6 +5.2 21 +28 +28 жарко 1011.4 987.9
06 24.05 З 1 8000 м ясно +25.0 +6.1 30 +25 +25 комфорт 1013.2 989.5 +16.5 +38.0
15 24.05 СВ 3 12 км 3/0
[Ci sp]
+25.2 +7.5 32 +25 +30 комфорт 1014.3 990.0
18 24.05 З 2 12 км 1/0
[Ci fib]
+34.4 +8.4 20 +33 +52 опасность
солнечного
удара
1014.1 990.5 +16.5 +34.4
21 24.05 ЮЗ 2 12 км 1/0
[Ci fib]
+37.6 +9.4 18 +36 +54 опасность
солнечного
удара
1012.7 989.3
00 25.05 З 3 12 км 4/0
[Ci fib]
+37.8 +9.7 18 +36 +40 очень
жарко
1010.6 987.3 +16.5 +39.0
03 25.05 З 3 8000 м 9/0
[Ci fib]
+32.4 +2.7 15 +30 +30 жарко 1012.2 988.8
06 25.05 З 2 8000 м ясно +28.0 +4.7 23 +27 +27 жарко 1013.4 989.9 +16.5 +39.0
15 25.05 СВ 3 12 км 8/0
[Ci sp]
+27.0 +5.7 26 +26 +30 жарко 1013.3 989.1
18 25.05 ЮЗ 2 12 км 1/0
[Ci fib]
+36.6 +4.5 14 +34 +53 опасность
солнечного
удара
1011.8 988.5 +19.0 +36.6
21 25.05 штиль 0 50 км ?/? +41.2 +12.7 19 +41 +41 опасность
перегрева
1009.3 986.3
00 26.05 З 3 12 км 4/3 600 м
[Sc Ci fib]
+40.6 +12.1 18 +40 +43 очень
жарко
1007.5 984.4 +19.0 +43.0
03 26.05 З 3 8000 м 4/0
[Cc]
+35.4 +11.6 24 +35 +35 очень
жарко
1008.4 985.3
06 26.05 З 1 8000 м ясно +30.6 +5.4 20 +29 +29 жарко 1009.5 986.2 +19.0 +43.0
15 26.05 З 2 12 км 1/0
[Ci fib]
+28.4 +10.0 32 +29 +34 жарко 1009.1 985.1
18 26.05 З 3 12 км 1/1 900 м
[Sc]
+35.0 +7.3 18 +33 +48 жарко 1008.8 985.3 +17.0 +35.0

 

Местоположение метеостанции Hermosillo (Мексика): широта 29.09 долгота -111.05 высота над уровнем моря 191 м.

В архиве по умолчанию представлена погода в Hermosillo за последнюю неделю. Архивные данные за месяц целиком и за предыдущие месяцы, начиная с января 2011 года, Вы можете получить, выбрав интересующий диапазон дат из раскрывающегося списка и нажав кнопку "Ввод!".


*Определитесь, кто Вы:
робот инопланетянин человек

Внимание! Время в таблицах - всемирное. Для получения местного времени необходимо прибавить поправку, которая в Hermosillo равна -7 ч.

Смотрите также архив погоды в соседних городах и на ближайших метеорологических станциях:

Погода в Hermosillo la Magna (Мексика) (10 км)
Погода в Guaymas (Мексика) (131 км)
Погода в Empalme (Мексика) (131 км)
Погода в Pilares de Nacoz (Мексика) (194 км)
Погода в Altar Son (Мексика) (196 км)
Погода в Ciudad Obregon (Мексика) (224 км)
Погода в Santa Rosalia (Мексика) (233 км)
Погода в Temosachic (Мексика) (316 км)
Погода в Nueva Casas Grandes (Мексика) (336 км)
Погода в Loreto (Мексика) (342 км)

Пояснения к столбцам:

Ветер - указаны скорость ветра в м/с - средняя за 10 мин, порывы в срок и между сроками (в фигурных скобках) и направление, откуда дует ветер: С - северный, СВ - северо-восточный, В - восточный, ЮВ - юго-восточный, Ю - южный, ЮЗ - юго-западный, З - западный, СЗ - северо-западный.
Видимость - горизонтальная дальность видимости в метрах или километрах. При видимости от 1 до 10 км при отсутствии осадков обычно наблюдается дымка, при ухудшении видимости до 1 км и менее - туман. В сухую погоду видимость может ухудшаться дымом, пылью или мглою.
Явления - указаны атмосферные явления, наблюдавшиеся в срок или в последний час перед сроком; фигурными скобками обозначены явления, наблюдавшиеся между сроками (за 1-3 часа до срока); квадратными скобками обозначены град или гололедные отложения с указанием их диаметра в мм.
Облачность - указаны через наклонную черту общая и нижняя облачность в баллах и высота нижней границы облаков в метрах; квадратными скобками обозначены формы облаков: Ci - перистые, Cs - перисто-слоистые, Cc - перисто-кучевые, Ac - высококучевые, As - высокослоистые, Sc - слоисто-кучевые, Ns - слоисто-дождевые, Cu - кучевые, Cb - кучево-дождевые. Подробнее классификацию облаков см. в Атласе облаков (PDF).
T - Температура воздуха - температура, измеренная на высоте 2 м над землей.
Td - Температура точки росы - температура, при понижении до которой содержащийся в воздухе водяной пар достигнет насыщения.
f - Относительная влажность воздуха - влажноcть воздуха, измеренная на высоте 2 м над землей.
Te - Эффективная температура - температура, которую ощущает одетый по сезону человек в тени. Характеристика душности погоды. При расчете учитывается влияние влажности воздуха и скорости ветра на теплоощущения человека.
Tes - Эффективная температура на солнце - температура, которую ощущает человек, с поправкой на солнечный нагрев. Характеристика знойности погоды. Зависит от высоты солнца над горизонтом, облачности и скорости ветра. Ночью, в пасмурную погоду, а также при ветре 12 м/с и более поправка равна нулю.
P - Атмосферное давление - приведенное к уровню моря атмосферное давление.
Po - Атмосферное давление - измеренное на уровне метеостанции атмосферное давление.
Tmin - Минимальная температура - минимум температуры воздуха на высоте 2 м над землей.
Tmax - Максимальная температура - максимум температуры воздуха на высоте 2 м над землей.
R - Количество осадков - Количество выпавших осадков за период времени, мм. При наведении курсора мыши на число - период времени, за который выпало указанное количество осадков.
R24 - Количество осадков - Количество выпавших осадков за 24 часа, мм.
S - Снежный покров - Высота снежного покрова, см. При наведении курсора мыши на число - состояние снежного покрова и степень покрытия местности в баллах.